Location: Kuffner-Sternwarte
(48.2130°N, 16.2960°E)
Time: 05:26:09
(UTC+02:00)

ACS3 Solar Sail - Pass Details

Date: 23 September 2024
Orbit: 963 x 1036 km, 97.4° (Epoch: 04 October)

Event Time Altitude Azimuth Distance (km) Brightness Sun altitude
Exits shadow 20:47:34 21° 158° (SSE) 2,158 3.2 -20.0°
Maximum altitude 20:52:09 80° 75° (ENE) 1,058 1.8 -20.7°
Drops below altitude 10° 20:58:35 10° 349° (N) 2,838 4.7 -21.6°
Sets 21:01:05 0° 349° (N) 3,787 5.4 -22.0°
